Montana Department of Transportation

Malcolm “Mack” Long, Director

COVID-19

View the Governor’s Coronavirus Task Force site for more information.

Main Content

Accidents and Incidents Report

Hourly Weather Roundup

ASUS45 KTFX 251810

RWRMT 

Montana Regional Weather Roundup

National Weather Service Great Falls MT

1100 AM MST THU FEB 25 2021



NOTE: "FAIR" indicates few or no clouds below 12,000 feet with no

significant weather and/or obstructions to visibility.



MTZ001.007-043-251900-

West of the divide

  

CITY           SKY/WX    TMP DP  RH WIND       PRES   REMARKS

Kalispell      LGT SNOW  31  18  58 S16       29.93F WCI  20          

Missoula       CLOUDY    26  14  60 E7        30.02F WCI  18          

Butte          CLOUDY    23   0  36 CALM      29.97F                  

Anaconda         N/A     25   1  36 S21G30    29.95F WCI  10          

Deer Lodge       N/A     25   7  46 S15G24    29.97F WCI  12          

Hamilton       MOSUNNY   30   9  40 S14       30.03F WCI  20          

Libby            N/A     32  25  74 SE15      29.90F WCI  22          

Mullan Pass    HVY SNOW  15  11  83 VRB5      29.83F VSB.1/4          

Ronan            N/A     32  14  47 S16G22    29.96F WCI  21          

--------------------------------



MTZ008-052.055-251900-

Southwest Montana

  

CITY           SKY/WX    TMP DP  RH WIND       PRES   REMARKS

Bozeman        CLOUDY    20   5  52 NE3       30.00F                  

Dillon         PTSUNNY   23   5  46 SW12      30.02F WCI  12          

Ennis          MOSUNNY   23  10  58 S26G36    30.07F WCI   6          

Twin Bridges   MOSUNNY   25   1  36 MISG      30.05F                  

--------------------------------



MTZ009-010-012-014-046-048-049-054-251900-

East Slopes and Central Montana

  

CITY           SKY/WX    TMP DP  RH WIND       PRES   REMARKS

Cut Bank       SUNNY     30  14  51 W39G56    29.69R WCI  13          

Great Falls    MOSUNNY   32  -2  23 SW35G46   29.79F WCI  17          

Helena         MOSUNNY   24  11  57 NW8       29.96F WCI  15          

Malmstrom AFB  CLOUDY    33   2  26 SW35G41   29.80F WCI  18          

Bowmans Corner FAIR      28  -2  27 SW31G37   29.80S WCI  11          

Choteau          N/A     34  12  40 SW28G37   29.71F WCI  20          

Fairfield      PTSUNNY   33   8  34 SW28      29.72F WCI  19          

Raynesford     PTSUNNY   35  -2  20 SW36G55   29.76F WCI  21          

Ulm            PTSUNNY   33   4  29 SW22G30   29.84F WCI  20          

White Sulphur    N/A     25   1  36 S21G28    29.91F WCI  10          

--------------------------------



MTZ011-013-016-021-045-047-050-051-251900-

North Central Montana

  

CITY           SKY/WX    TMP DP  RH WIND       PRES   REMARKS

Havre          CLOUDY    33  14  45 SW23G31   29.72F WCI  21          

Lewistown      MOSUNNY   32  12  43 W23       29.79F WCI  19          

Chinook          N/A     37   7  28 SW30G40   29.70F WCI  25          

Denton         PTSUNNY   35   7  31 W18       29.75F WCI  24          

Fort Benton      N/A     36   7  30 S23G32    29.78F WCI  24          

Geyser         PTSUNNY   34   0  24 W25G33    29.77F WCI  21          

Grass Range    PTSUNNY   38   4  24 W20       29.75F WCI  29          

N Bar Ranch    FAIR      36  -2  20 SW22G30   29.80F WCI  24          

Roy            FAIR      35  10  35 W26       29.75F WCI  23          

Stanford       PTSUNNY   35  -3  19 W43G58    29.70F WCI  20          

Winifred         N/A     33  13  44 W21       29.76F WCI  20          

--------------------------------



MTZ017.020-022.027-061-062-251900-

Northeast Montana

  

CITY           SKY/WX    TMP DP  RH WIND       PRES   REMARKS

Glasgow        SUNNY     36  16  44 S12       29.80F WCI  28          

Circle           N/A     34  19  55 SW23G35   29.86  WCI  22          

Glendive       MOSUNNY   34  19  54 S21       29.92F WCI  22          

Jordan           N/A     39  13  34 SW28G37   29.82F WCI  28          

Malta          SUNNY     37  14  38 S15       29.74F WCI  28          

Plentywood     SUNNY     32  19  59 SW18G25   29.81F WCI  20          

Poplar           N/A     37  16  41 S17       29.84F WCI  28          

Sidney         MOSUNNY   37  18  46 SW25      29.90F WCI  25Wolf Point     MOSUNNY   37  16  42 SW13      29.84F WCI  29          

--------------------------------



MTZ028.42-056.058-251900-

Southcentral and southeast Montana

  

CITY           SKY/WX    TMP DP  RH WIND       PRES   REMARKS

Baker          SUNNY     37  11  34 SW21G26   29.96F WCI  26          

Big Timber     SUNNY     32   3  29 W24       29.91F WCI  19          

Billings       MOSUNNY   37   4  25 SW23G44   29.90F WCI  26          

Hardin         CLEAR     39  14  35 S18G28    29.93  WCI  30          

Harlowton      PTSUNNY   32  -1  24 W15       29.87F WCI  21          

Laurel           N/A     36   7  30 SW33G46   29.92F WCI  22          

Livingston     MOSUNNY   29   7  39 SW46G64   29.91F WCI  11          

Miles City     SUNNY     35  13  40 S21G26    29.94F WCI  24          

--------------------------------



Regional Reports...Dakotas/MN

  

CITY           SKY/WX    TMP DP  RH WIND       PRES   REMARKS

Williston      CLEAR     31  22  69 S16G31    29.87F WCI  20          

Minot          SUNNY     32  20  61 S15       29.93F WCI  22          

Dickinson      SUNNY     40   9  28 SW23G33   29.94F                  

Hettinger      SUNNY     38  16  40 SW15G24   30.03F WCI  29          

Tioga          FAIR      27  25  93 SW18      29.89F WCI  13          

Bismarck       SUNNY     42  20  41 SW15G23   30.06F                  

Grand Forks    SUNNY     28  20  71 SW8       30.11F WCI  20          

Fargo          SUNNY     29  22  75 S13       30.17F WCI  19          

Rapid City     SUNNY     42   7  23 S18G26    30.08F                  

Intl Falls     CLOUDY    25  19  78 SW8       30.07F WCI  16          

Duluth         MOSUNNY   26  18  71 W12       30.15F WCI  16          

Minneapolis    SUNNY     33  22  63 SW13      30.30F WCI  24          

--------------------------------



Regional Reports...WY/ID/WA

  

CITY           SKY/WX    TMP DP  RH WIND       PRES   REMARKS

Buffalo WY     SUNNY     29   9  43 SE7       29.95F WCI  22          

Cody           SUNNY     32  -4  21 SW16G30   30.04F WCI  21          

Gillette       SUNNY     30  14  51 SW24G35   29.99F WCI  16          

Powell         FAIR      25   9  50 SE17      30.01F WCI  11          

Sheridan       SUNNY     32  11  41 CALM      29.95F                  

Yellowstone La   N/A      1  -5  75 E5        30.13F                  

Boise          PTSUNNY   30  15  53 SE14      30.33F WCI  19          

Couer d'Alene  LGT SNOW  28  27  93 S10       29.97F FOG     WCI  19  

Idaho Falls    CLOUDY    24  17  74 S15       30.30F WCI  11          

Salmon         CLOUDY    14   5  67 CALM      30.22F                  

Spokane        BLWGSNOW  33  29  85 SW26G38   29.93F VSB 1   WCI  20  

Seattle        PTSUNNY   44  42  93 S20G30    30.12F                  

--------------------------------



Regional Reports...Alberta

  

CITY           SKY/WX    TMP DP  RH WIND       PRES   REMARKS

Cardston         N/A     34  14  44 W22G33      N/A  WCI  22          

Crowsnest Pass   N/A     28  16  59 NW16G35     N/A  WCI  17          

Del Bonita       N/A     28  19  69 SW26        N/A  WCI  13          

Edmonton       MOSUNNY   34  23  64 SW8       29.37F WCI  27          

Fort McMurray  LGT SNOW  18  12  79 N3        29.34                   

High Level     LGT SNOW   3   0  85 N14G20    29.50R VSB 1   WCI -15  

Lethbridge     PTSUNNY   37  16  41 W28G43    29.63F WCI  25          

Lloydminster   CLOUDY    27  16  63 W17       29.36F WCI  14          

Medicine Hat   CLOUDY    36  18  48 SW22G29   29.56S WCI  24          

Milk River       N/A     34  18  51 W28G38      N/A  WCI  20          

Onefour          N/A     34  16  47 SW16G29     N/A  WCI  23          

Peace River    PTSUNNY   28  25  86 W13       29.27S WCI  18          

Pincher Creek  SUNNY     30  16  55 W32G46    29.61F WCI  15          

Raymond          N/A     36  18  48 W13         N/A  WCI  27          

Waterton Gate    N/A     28  14  54 SW43G64     N/A  WCI  10          

Fort Smith NWT PTSUNNY  -11 -22  58 NE14      29.74R WCI -33          

--------------------------------



Regional Reports...Saskatchewan

  

CITY           SKY/WX    TMP DP  RH WIND       PRES   REMARKS

Assiniboia       N/A     27  14  59 SW20G25     N/A  WCI  13          

Coronach         N/A     32  18  55 S13G20      N/A  WCI  22          

Cypress Hills    N/A     25  14  63 MISG        N/A                   

Estevan        SUNNY     25  19  80 SW20      29.83F WCI  11          

La Ronge         N/A     18  10  73 S6          N/A  WCI   9          

Moose Jaw        N/A     30  18  59 SW23G29     N/A  WCI  17          

Prince Albert  CLOUDY    21  12  68 SW8       29.52F WCI  12          

Regina         CLOUDY    28  19  69 S15       29.69F WCI  17          

Rockglen         N/A     28  14  54 SW18        N/A  WCI  16          

Saskatoon      CLOUDY    25  16  68 S16       29.48F WCI  12          

Swift Current  PTSUNNY   27  18  69 SW29G36   29.54F WCI  11          

Uranium City     N/A    -11 -22  58 MISG        N/A                   

Val Marie        N/A     32  18  55 S17         N/A  WCI  21          

--------------------------------